Location: *
(43.4667°N, 11.6833°E)
Time: 02:29:30
(UTC+00:00)

Cosmos 1238 Rocket - Pass Details

Date: 19 July 2019
Orbit: 374 x 1036 km, 82.9° (Epoch: 24 August)

Event Time Altitude Azimuth Distance (km) Brightness Sun altitude
Rises 19:53:18 0° 184° (S) 3,701 6.7 -10.2°
Reaches altitude 10° 19:55:48 10° 184° (S) 2,794 6.0 -10.6°
Maximum altitude 20:02:25 87° 97° (E) 1,043 4.1 -11.4°
Drops below altitude 10° 20:09:00 10° 8° (N) 2,783 6.9 -12.3°
Sets 20:11:29 0° 9° (N) 3,685 7.6 -12.6°
